Retour au catalogue

PARUS-6U1

ActifRadio amateurSSO
NORAD 68456·PAYLOAD·🇹🇼 Taiwan

Lancé Mar 30, 2026 depuis Vandenberg Space Force Base

Loading…

Prochains Passages (prochaines 24 heures)

TLE

FraisSource: Space-Track

Époque: Sep 14, 2026, 20:10 UTC

1 68456U 26067AS  26257.84081588  .00005237  00000-0  25830-3 0  9992
2 68456  97.4654 214.9223 0007337 106.4472 253.7569 15.18326638 25538

Suivez PARUS-6U1 en temps réel avec AllMySat

Download on the App Store